Terminal Aerodrome Forecast
Issued by NWS

Home | Current Version | Previous Version | Text Only | Print | Product List | Glossary On
Versions: 1 2 3 4 5 6 7 8 9 10 11 12 13 14 15 16 17 18 19 20 21 22 23 24 25 26 27 28 29 30 31 32 33 34 35 36 37 38 39 40
000
FTUS43 KDMX 300520
TAFOTM
TAF
KOTM 300520Z 3006/3106 20009KT P6SM SCT080
     FM300800 31014G20KT P6SM VCSH BKN009 OVC014
     FM301300 36014G20KT P6SM BKN017 OVC028=

USA.gov is the U.S. government's official web portal to all federal, state and local government web resources and services.